Reflectivity
-20 -20 -20 -20 -9 -10 -20 -7 -1 -2 -16 -20 -6 -19 4 -0 -3 -20 -20 -20 -20 -20 -17 2 26 22 21 -9 20 2 -20 -20 -20 -20 -16 4 -12 15 -6 -3 13 16 9
-20 -20 -20 -20 -20 8 -20 0 5 -0 -16 12 16 22 -1 2 -20 -19 -6 8 -20 -20 -20 -20 8 -13 -10 4 -20 -20 -20 -20 -20 -20 -20 -20 -17 0 -20 15 19 19 4
-20 -20 -20 -16 -20 -20 -20 1 3 3 7 -17 6 13 -9 -15 -19 -20 21 1 -8 -18 -20 -20 8 -20 -20 -20 -20 -20 -20 -20 -20 -20 -20 -20 -20 -11 -20 -20 -20 -20 -20
-20 -20 -20 8 -6 -20 -20 2 -1 1 3 -20 -15 -9 -20 -11 -4 -15 -16 -13 -20 -20 -20 -20 -8 -20 -20 -20 -20 -20 -20 -20 -20 -20 -20 -20 -20 -20 -20 -20 -20 -20 -20
-20 -20 -20 -14 -20 -14 -4 -20 -20 -0 1 -20 -13 -13 -6 -4 1 20 -19 -20 -20 -20 -20 -20 -3 10 -20 -18 14 -13 -18 -20 -20 -20 -16 3 10 -3 -20 -20 -20 -20 -20
-20 -20 -20 -20 -20 -20 -19 -20 -20 -20 -20 -20 -20 -20 14 -20 -7 1 -0 -6 -20 -20 -20 -4 2 -20 17 -7 -17 -12 18 2 -1 17 0 -8 -20 -20 -20 14 -20 -20 -20
-20 -20 -20 15 -14 -20 -20 17 -20 -20 -20 -20 -20 -20 -20 8 -20 6 6 -9 -20 -20 -20 -15 -3 -20 19 10 17 -8 10 11 -12 6 6 -13 -9 -4 -1 -20 17 -7 -15
-20 -20 -20 -20 -11 -20 -20 -11 -20 -20 -20 -7 -20 -18 -20 -20 -11 -20 -5 -20 -20 -20 -2 -20 -20 -20 11 18 13 8 -20 4 -2 11 -20 -1 14 -8 -20 -19 20 18 20
-20 -20 -20 -20 -20 10 -20 14 -20 -20 -20 -16 15 -9 12 -20 -20 1 5 -20 -20 -18 -18 -20 -20 -20 8 14 8 12 -20 -20 -20 -12 0 14 5 4 -3 5 16 11 12
-20 -20 -20 -20 -20 -20 -20 -19 -20 -20 -20 -2 10 -20 -0 -20 -20 -1 2 -16 4 11 -20 -20 4 11 -1 -19 4 -20 -19 -20 -20 -20 -20 -19 11 14 8 1 17 -20 -20
-20 -20 -20 -20 -20 -20 -20 -20 -20 14 9 9 -2 -20 -20 -20 -20 -11 -20 -10 15 2 -20 -20 12 -20 -16 12 7 4 6 -20 -20 -20 -14 13 11 13 13 5 11 1 -11
-20 -20 -20 -20 -20 -20 -20 -20 -20 26 23 24 -3 -20 -20 -20 -20 -20 -20 -19 14 -20 3 11 -9 13 7 -18 -12 12 -18 -20 -20 -20 -5 10 17 11 15 10 10 9 -15
-20 -20 -20 -20 -20 -20 -20 -20 -20 22 26 12 16 -20 -7 -20 -20 -20 -20 -20 -15 -0 -20 -6 -9 1 -17 -11 -20 2 -12 -20 -20 -15 9 11 15 13 13 12 10 10 16
-20 -20 -20 -20 -20 -20 -20 -20 -15 -9 -20 -18 -7 -20 -20 -20 -20 -20 -20 -20 -20 -4 -4 -7 -20 -14 3 -5 -20 -12 -20 -20 -20 -20 -6 8 13 14 15 11 9 15 11
-20 -20 -20 -20 -20 -20 -20 -20 -11 -11 5 -20 -4 -20 -20 8 -20 -20 -20 -20 -20 -20 -20 -7 -20 -14 1 -20 -20 -20 -20 -20 -20 -20 -1 16 8 11 11 8 4 14 15
-20 -20 -20 -20 -20 -20 -20 -20 -20 -20 -20 -14 -3 -20 -2 -8 -6 -20 -20 -20 -20 -20 -20 -4 -1 -20 -20 -20 -20 -20 -20 -20 -20 -20 -10 11 10 12 15 8 13 14 14
-20 -20 -20 -20 -20 -20 -20 -20 -20 6 5 -20 -20 -18 7 24 -15 -9 -20 -20 -20 -20 -20 -20 1 -20 -20 -20 -20 -20 -20 -20 -20 -20 -12 -4 12 12 9 16 10 -1 14
-20 -20 -20 -20 -20 -20 -20 -20 -20 -20 -1 10 -7 -20 17 7 11 -20 -19 -20 -20 -20 -15 -20 -20 -16 -20 -20 -20 -20 -20 -20 -20 -20 7 5 4 5 14 14 3 14 11
-20 -20 -20 -20 -20 -20 -20 -20 -20 -8 -5 -5 10 -19 -20 -1 -8 -20 9 -2 -20 -20 -20 -20 -20 -20 -20 -20 -20 -20 -20 -20 -20 -20 -5 -1 1 -2 -3 11 0 -13 -19
-20 -20 -20 -20 -20 -20 -20 -20 -20 -20 -13 5 -1 -17 1 -13 -19 2 18 17 12 -20 -20 -20 -20 -20 -20 -20 -20 -20 -20 -20 -20 -20 -20 -20 -5 3 2 0 -15 -19 -20
-20 -20 -20 -20 -20 -20 -20 6 -20 -20 -20 -17 -13 -20 -20 -20 -20 11 3 27 7 15 -20 -20 -3 -20 -20 -20 -20 -20 -20 -20 -20 -20 -20 -20 -20 -9 -17 -20 -20 -20 -20
-20 -20 -20 -20 -20 -20 -20 -20 -20 -20 -20 -20 -20 10 -20 -20 -20 4 -14 -17 20 27 10 18 -20 7 -20 -20 -13 -20 -20 -20 -20 -20 -20 -20 -20 -20 -20 -20 -20 -20 -20
6 -9 -6 -3 -20 -20 1 4 -13 -7 13 -6 -11 -20 -20 -20 -20 -20 -2 -20 -4 28 41 29 32 -4 -20 -20 -20 -20 -20 -8 -20 -20 -20 -20 -20 -20 -20 -20 -20 -20 -20
-20 6 -0 0 -15 -4 -13 -12 -20 -11 -3 -20 -20 -20 -20 -20 -20 -20 -14 -20 -20 2 13 38 37 18 -6 -20 -20 -20 -20 -20 -20 -20 -20 -20 -20 -20 -20 -20 -20 -20 -20
-20 -20 -14 -8 -13 -20 -20 -16 5 -5 -20 -20 2 9 -13 -19 -20 -19 -19 -9 -6 2 -20 -1 31 34 7 -12 -20 -20 -20 -20 -20 -20 -20 -20 -20 -20 -20 -20 -20 -20 -20
-18 -20 -20 -20 -20 -15 -16 -20 -20 -20 -20 -8 2 -20 -14 4 5 3 2 17 18 0 -3 -20 -6 31 27 1 -19 -20 -20 -20 -20 -20 -20 -20 -20 -20 -20 -20 -20 -20 -20
Wind_Speed
7 8 14 15 16 17 17 15 15 14 15 16 17 18 18 18 17 16 15 15 14 12 11 13 13 14 16 17 14 15 15 14 13 13 13 14 16 17 16 12 11 12 14
6 12 14 16 18 17 16 15 14 14 15 14 15 17 16 16 16 16 16 17 16 13 10 9 14 14 13 13 13 13 13 14 13 12 11 12 12 16 16 15 13 16 17
9 12 14 15 17 17 16 16 14 14 14 15 14 14 16 16 16 15 14 15 14 11 10 10 12 13 13 11 12 12 13 14 13 12 9 9 12 14 14 14 13 14 15
9 10 11 15 17 17 17 17 15 15 15 14 15 15 15 14 16 17 15 14 12 10 10 9 8 12 12 12 12 13 14 14 13 11 9 9 11 13 14 13 13 13 13
9 9 9 12 16 17 17 17 17 15 15 16 15 14 14 14 15 17 14 12 12 11 9 8 9 12 11 12 14 16 15 14 12 10 10 11 9 12 14 13 13 13 13
7 8 9 10 13 15 16 17 16 15 16 14 15 14 14 14 13 16 16 10 10 12 12 10 12 12 12 13 15 16 17 14 11 7 8 9 8 12 14 13 12 14 15
6 5 6 8 12 13 15 16 16 15 16 15 14 15 15 13 15 16 15 11 10 10 10 10 13 12 11 11 16 17 14 11 7 7 5 5 11 15 15 14 13 13 14
7 5 5 6 9 11 13 15 15 15 16 16 14 15 16 15 15 15 15 11 11 11 12 13 14 13 10 12 16 17 13 9 8 8 9 10 13 17 13 14 14 18 19
4 6 6 6 7 9 12 13 15 16 16 16 14 15 16 16 16 15 13 11 12 12 13 13 14 13 11 14 16 16 13 10 9 7 10 4 10 13 12 14 14 16 18
1 5 7 8 8 8 10 12 13 14 16 15 14 13 12 12 13 14 12 11 12 12 13 13 15 14 14 14 17 15 12 10 9 9 7 6 12 11 9 11 13 14 15
3 5 5 7 9 9 8 9 11 13 14 14 12 13 13 8 11 13 9 12 11 12 13 13 13 9 15 13 15 13 8 5 7 6 4 10 12 9 9 11 10 12 12
4 6 7 7 9 9 7 10 10 10 10 12 12 11 9 11 10 9 9 11 11 11 14 11 12 14 11 7 6 9 4 9 6 6 4 9 10 11 11 10 11 12 12
7 6 7 8 8 9 8 6 4 4 6 7 11 10 9 9 8 8 6 7 6 9 8 6 9 6 7 6 6 5 6 8 6 5 6 10 13 13 13 12 12 13 14
8 10 8 8 7 9 6 6 7 6 7 7 8 11 9 7 9 9 8 9 7 5 9 6 4 7 6 9 8 9 9 7 5 5 7 9 12 13 12 13 12 12 13
10 12 12 8 8 8 9 7 7 7 8 10 10 10 9 9 11 10 9 8 9 7 7 7 6 7 8 10 8 11 10 9 8 5 3 8 10 12 14 13 13 14 12
11 11 11 10 10 8 8 10 8 6 8 8 9 11 13 8 9 11 10 9 10 8 7 9 7 9 8 9 10 9 9 8 8 8 4 5 10 10 13 13 15 12 12
8 8 10 10 9 10 11 9 8 7 8 8 9 14 14 11 11 12 10 10 10 9 11 8 7 8 9 7 10 8 7 8 7 8 5 3 4 11 11 14 14 11 12
8 9 7 7 10 10 10 8 7 7 7 7 7 9 15 14 11 11 11 10 11 9 9 8 9 8 9 9 7 7 6 6 7 8 4 3 3 2 8 12 13 13 13
7 6 7 8 9 10 8 7 8 9 7 7 7 8 13 14 10 9 10 12 13 11 10 9 9 10 9 9 8 6 5 5 6 5 6 6 6 4 5 13 14 13 13
5 2 4 6 7 9 7 5 4 3 2 3 7 9 14 10 13 8 5 9 11 11 11 9 12 9 11 10 8 6 4 4 4 4 6 5 5 5 5 7 6 9 10
9 7 4 6 7 9 8 6 4 5 3 3 4 11 14 12 13 12 7 6 7 10 13 14 11 14 9 12 10 6 4 4 4 3 3 5 6 5 6 7 6 6 6
8 7 6 6 7 6 5 3 2 4 2 2 3 3 8 10 12 11 11 9 10 6 10 11 12 9 6 11 9 6 4 1 1 2 3 4 6 5 6 7 8 7 5
12 8 4 3 3 4 4 4 3 4 3 2 2 3 5 9 11 12 12 12 13 11 9 12 11 14 9 10 14 6 5 4 4 2 4 4 6 5 5 6 7 7 6
12 10 10 2 3 3 5 4 4 3 5 4 5 4 6 8 10 9 9 13 15 13 14 14 10 12 10 14 10 3 3 7 6 5 3 5 5 6 6 5 6 6 6
13 11 9 9 3 3 4 4 4 4 3 2 3 6 6 5 5 6 7 10 13 11 15 18 19 13 11 12 11 7 3 2 4 4 6 6 4 6 6 6 6 5 6
13 13 12 11 7 3 3 5 7 8 6 4 6 7 6 5 6 9 8 8 10 12 14 15 17 21 14 13 13 10 8 6 6 4 3 6 10 5 5 6 6 6 6
Wind_Direction
214 187 166 156 156 150 146 149 147 148 147 150 153 152 152 149 145 143 143 142 132 121 119 116 112 118 123 117 119 114 114 111 104 100 95 94 98 94 99 101 124 110 113
157 171 170 165 160 160 154 154 150 150 153 150 149 154 151 151 148 148 153 145 134 130 128 124 113 106 103 107 116 118 118 112 109 98 90 97 94 94 92 84 89 96 92
159 167 173 171 163 161 157 155 153 154 156 157 156 159 156 161 157 151 150 136 124 128 137 142 125 116 109 117 123 125 122 119 112 106 95 108 102 98 97 95 91 85 88
172 171 177 172 166 162 161 157 158 160 158 155 155 161 166 163 152 140 136 119 126 142 148 151 155 111 115 129 133 132 129 125 117 112 127 122 118 105 103 108 102 101 99
192 178 177 164 172 169 165 163 164 167 166 167 164 162 158 161 152 137 123 130 137 140 143 139 144 123 157 143 131 125 123 116 110 133 132 126 119 112 99 103 106 111 109
168 175 175 170 173 175 176 169 170 172 169 168 167 160 160 156 154 133 128 136 138 132 154 135 138 144 156 141 122 106 106 100 93 93 107 106 103 109 103 104 98 113 109
161 170 188 189 183 182 180 179 176 179 171 174 166 157 159 154 143 136 127 144 141 137 149 143 146 160 164 141 130 118 104 98 96 87 90 119 109 115 115 91 85 119 101
172 186 197 209 193 186 187 186 184 180 174 172 167 163 154 149 137 135 132 156 152 148 155 158 159 163 153 137 128 115 107 106 106 106 112 108 111 98 110 90 95 95 96
211 199 202 206 212 200 193 195 190 187 179 178 177 161 151 144 139 135 144 158 162 156 156 161 160 161 151 131 121 118 110 102 119 110 104 80 102 102 93 97 90 87 89
227 233 223 210 207 211 210 195 194 192 184 182 180 152 137 138 136 142 158 169 168 167 170 172 174 161 137 134 117 114 120 116 112 106 87 84 94 108 111 117 87 90 91
247 238 232 229 219 209 208 211 200 185 183 187 170 152 146 161 163 161 159 172 163 169 177 178 167 131 127 120 114 108 124 130 97 82 80 108 110 125 124 106 104 99 100
246 252 222 226 225 216 204 208 208 199 194 190 178 163 158 161 163 163 163 168 167 178 164 165 139 119 113 117 117 112 116 124 123 131 130 116 136 124 115 117 111 102 98
231 244 243 226 223 219 211 194 192 189 173 172 178 162 154 155 160 161 170 175 168 177 165 130 115 129 127 127 121 123 126 127 137 134 135 131 135 129 126 118 118 126 123
221 229 236 235 223 216 211 198 184 184 177 175 179 171 160 158 161 168 175 179 174 155 152 137 132 127 135 136 139 140 140 132 148 143 136 143 132 135 136 135 133 123 118
228 229 234 226 222 215 202 201 189 190 185 183 174 179 168 169 163 168 179 181 181 145 152 143 149 141 134 152 150 147 147 144 147 143 124 142 141 144 141 133 131 130 123
232 231 224 212 214 197 199 201 204 190 188 182 178 176 177 175 166 163 180 186 180 167 149 147 152 152 150 155 150 154 147 145 144 134 128 120 143 142 139 146 135 134 133
225 230 221 211 204 194 196 195 197 201 189 180 184 184 180 181 172 169 176 186 181 165 147 138 133 153 146 150 150 150 147 147 133 120 102 93 142 156 152 147 137 152 153
248 219 219 204 188 196 191 183 194 200 189 181 182 183 183 181 185 178 173 185 180 162 152 153 145 157 156 155 149 149 146 144 141 122 110 105 81 105 146 150 142 122 107
266 242 217 201 191 184 181 181 195 196 190 175 176 183 190 182 179 189 191 183 175 164 159 157 153 154 164 156 148 142 140 141 130 125 123 100 88 80 80 76 89 98 101
360 283 224 186 176 155 161 158 155 142 143 173 180 189 185 187 169 175 202 195 179 171 158 159 155 160 161 154 137 119 113 111 119 138 131 116 99 83 96 89 93 91 94
25 39 46 140 144 148 151 164 172 186 172 174 191 192 190 185 186 174 169 184 195 191 169 160 159 152 152 147 130 113 78 75 108 124 137 135 136 112 120 110 100 104 97
27 32 47 96 141 152 160 173 141 171 178 173 166 178 186 177 178 181 176 165 171 181 156 162 167 161 149 172 161 129 143 119 116 164 162 162 150 141 130 117 120 115 112
7 358 34 86 144 145 126 109 72 84 89 106 158 181 185 179 181 178 177 166 166 159 163 152 184 185 167 186 168 148 150 186 138 167 198 187 172 166 147 139 135 134 135
358 354 356 49 126 140 141 157 165 198 203 199 194 198 190 184 190 183 174 171 171 163 164 159 177 190 185 183 180 186 124 136 169 167 192 201 190 182 170 166 157 149 150
360 353 352 1 21 127 173 186 185 192 200 189 188 193 198 199 197 190 189 186 187 173 174 172 159 200 195 191 188 172 149 160 138 143 169 176 195 202 188 182 170 163 164
16 8 4 4 5 344 195 196 209 217 205 185 192 201 204 195 201 205 200 199 206 192 177 179 181 173 192 192 197 186 175 170 171 151 124 171 191 188 191 187 183 177 172